TITAN 3C TRANSTAGE R/B, 9855

Orbit data source: Space-Track

TITAN 3C TRANSTAGE R/B, 9855 is space debris in GEO originally from a launch on Sun, 06 Feb 1977 UTC launched from the Air Force Eastern Test Range (AFETR). Debris objects in space refer to the collection of defunct objects orbiting the Earth. Examples of debris include non-operational satellites, rocket bodies, and fragments generated from explosions, collisions, or faulty payload assembly.

Loading next visibility...
Identifier
9855, 1977-007C
Orbit
GEO
Country
Flag of USUS
Related business
Manufacturer
Martin Marietta
Mission
Spacecraft
Bus & Motor
TRANSTAGE, Unknown motor
Mass
~1,950 kg wet, ~1,950 kg dry
Launch date (UTC)
1977-02-06 (49 years ago)
Launch vehicle
Unknown
Launch site
Air Force Eastern Test Range (AFETR)
Object type
Payload
Rocket body
Debris
Shape & HBR
Cyl + 2 Nozzle, 2.3 m
Radar Cross Section
14.974 m²

Expand to show TLE details & history
Last TLE update: 8 hours ago

TLE from 8 hours ago
0 TITAN 3C TRANSTAGE R/B
1 09855U 77007C   25243.18683875  .00000093  00000-0  00000-0 0  9992
2 09855   4.1457 272.7036 0015743  34.9624 325.0250  1.00228536 22452
Epoch: 2025-08-31T04:29Z
TLE epoch observation values (Epoch: 2025-08-31T04:29:02.867Z)
Latitude
Longitude
-134.28375°
Altitude
35,743.847 km
Speed
3.078 km/s
True Right ascension
18h 10m 21s
True Declination
0° 00' 00"
Sunlit
Object was in daylight at epoch
Visualization orbit readout
Latitude
Unknown
Longitude
Unknown
Altitude
Unknown
Speed
Unknown
Apparent Right ascension
Unknown
Apparent Declination
Unknown
Sunlit
N/A
Visualization observer readout
Local Sidereal Time
03:46:18
Azimuth
Unknown
Elevation
Unknown
Doppler factor
Unknown
Orbital elements
Apogee altitude
35,866.186 km
Perigee altitude
35,733.385 km
Semi-major axis
42,177.922 km
Eccentricity
0.00157
Inclination
4.1457°
RAAN
272.7036°
Arg. of periapsis
34.9624°
True anomaly
324.92142°
Mean anomaly
325.025°
Eccentric anomaly
324.97323°
Mean motion
0.25056 °/min
Orbital period
1,436.77 mins
BSTAR
0
Loading maneuver chart data...
Computing Atmospheric mass density...
Loading historical data...
Loading historical data...
Loading historical data...
Loading historical data...
Loading historical data...
Loading historical data...
Loading historical data...
Other satellites on launch #7 in the year 1977 (1977-02-06 UTC)

Documentation

Showing up to 5 results
|